User: anonymous   Login
Location: Fort Wayne
(41.1310°N, 85.1290°W)
Time: 17:57:31
(UTC-04:00)
Language:

Cosmos 1000 Rocket - Orbit

View from above orbital plane
View from above orbital plane
View from above satellite
View from above satellite

Ground track
Ground track

The orbit data is extracted from the following two-line orbital elements,

1 10777U 78034B   15123.49129973  .00000103  00000-0  87966-4 0  9994
2 10777 082.9417 087.5078 0025302 208.0580 292.1615 13.77344797863606
Epoch (UTC): 03 May 2015 11:47:28
Eccentricity: 0.0025302
inclination: 82.9417°
perigee height: 955 km
apogee height: 992 km
right ascension of ascending node: 87.5078°
argument of perigee: 208.0580°
revolutions per day: 13.77344797
mean anomaly at epoch: 292.1615°
orbit number at epoch: 86360

The dashed part of the orbit path shows where the satellite is in the earth's shadow,  

DLR